Regional Weather Roundup
Issued by NWS Cleveland, OH

Home | Current Version | Previous Version | Graphics & Text | Print | Product List | Glossary On
Versions: 1 2 3 4 5 6 7 8 9 10 11 12 13 14 15 16 17 18 19 20 21 22 23 24 25 26 27 28 29 30 31 32 33 34 35 36 37 38 39 40 41 42 43 44 45 46 47 48 49 50
000
ASUS41 KCLE 281810
RWRCLE
OHIO REGIONAL WEATHER ROUNDUP
NATIONAL WEATHER SERVICE CLEVELAND, OH
200 PM EDT FRI AUG 28 2015

NOTE: "FAIR" INDICATES FEW OR NO CLOUDS BELOW 12,000 FEET WITH NO
SIGNIFICANT WEATHER AND/OR OBSTRUCTIONS TO VISIBILITY.

OHZ001>008-015>018-024>027-034-035-043-044-281900-
   NORTHWEST OHIO

CITY           SKY/WX    TMP DP  RH WIND       PRES   REMARKS
DEFIANCE       MOSUNNY   76  56  49 SW7       30.18F
FINDLAY        SUNNY     76  56  49 VRB3      30.18F
TOLEDO EXPRESS MOSUNNY   77  57  50 NW5       30.18F
TOLEDO EXEC    PTSUNNY   75  55  49 NW6       30.19F
LIMA           SUNNY     74  55  51 SW5       30.19F
$$

OHZ009>014-019>023-028>033-038-089-281900-
   NORTHEAST OHIO

CITY           SKY/WX    TMP DP  RH WIND       PRES   REMARKS
CLE-HOPKINS    MOSUNNY   78  55  44 VRB6      30.21F
CLE-LAKEFRONT  MOSUNNY   74  59  59 N9        30.19F
CUY CO. ARPT   MOSUNNY   77  59  53 N6        30.21F
LORAIN-ELYRIA  MOSUNNY   76  55  48 NW3       30.20F
ASHTABULA      MOSUNNY   71  55  56 CALM      30.22F
AKRON-CANTON   PTSUNNY   77  52  41 W5        30.20F
WOOSTER        PTSUNNY   77  50  38 VRB5      30.21F
MANSFIELD      PTSUNNY   77  52  41 S5        30.21F
YOUNGSTOWN     PTSUNNY   75  54  47 VRB3      30.21F
$$

OHZ042-051>053-060>062-070>072-077>081-281900-
  SOUTHWEST OHIO

CITY           SKY/WX    TMP DP  RH WIND       PRES   REMARKS
CINC-COVINGTON MOSUNNY   78  56  46 SE8       30.18F
CINC-LUNKEN    SUNNY     78  57  48 MISG      30.17F
HAMILTON       SUNNY     79  56  45 VRB7      30.19F
DAYTON         PTSUNNY   76  55  48 E6        30.19F
WRIGHT-PAT AFB MOSUNNY   77  57  50 SE7       30.18F
DAYTON GENERAL SUNNY     75  55  49 VRB3      30.18F
WILMINGTON     MOSUNNY   75  54  47 VRB3      30.19F
$$

OHZ036-037-039>041-045>050-054>059-063>069-073>076-082>088-281900-
  CENTRAL AND SOUTHEAST OHIO

CITY           SKY/WX    TMP DP  RH WIND       PRES   REMARKS
COLUMBUS       MOSUNNY   76  53  44 CALM      30.19F
OSU AIRPORT    MOSUNNY   76  53  44 NE5       30.19F
BOLTON FIELD   SUNNY     75  55  50 SE6       30.20F
RICKENBACK AFB SUNNY     75  54  48 SW5       30.19S
NEWARK         PTSUNNY   78  56  46 NE5       30.19F
MARION         SUNNY     76  54  46 SW5       30.20F
LANCASTER      SUNNY     78  53  41 CALM      30.19F
ZANESVILLE     SUNNY     78  51  38 E7        30.19F
NEW PHILLY     MOSUNNY   78  52  40 SW3       30.20F
$$



USA.gov is the U.S. government's official web portal to all federal, state and local government web resources and services.